Regional Weather Roundup
Issued by NWS

Home | Current Version | Previous Version | Text Only | Print | Product List | Glossary On
Versions: 1 2 3 4 5 6 7 8 9 10 11 12 13 14 15 16 17 18 19 20 21 22 23 24 25 26 27 28 29 30 31 32 33 34 35 36 37 38 39 40 41 42 43 44 45 46 47 48 49 50
000
ASUS44 KFWD 021615
RWRTX
NORTH TEXAS HOURLY WEATHER ROUNDUP
NATIONAL WEATHER SERVICE FORT WORTH TX
1100 AM CDT THU OCT 02 2014

NOTE: "FAIR" INDICATES FEW OR NO CLOUDS BELOW 12,000 FEET WITH NO
SIGNIFICANT WEATHER AND/OR OBSTRUCTIONS TO VISIBILITY.

TXZ118-119-021700-
DALLAS/FORT WORTH METROPLEX

CITY           SKY/WX    TMP DP  RH WIND       PRES   REMARKS
DFW AIRPORT    PTSUNNY   86  72  62 S17G24    29.82R HX  92
DALLAS LOVE    PTSUNNY   84  72  67 S12G20    29.83R
FTW MEACHAM    PTSUNNY   85  71  63 S14G23    29.82R HX  90
DAL-EXECUTIVE  CLOUDY    85  71  63 S12G22    29.83S HX  90
FTW-ALLIANCE   PTSUNNY   85  71  63 SW15G23   29.81S HX  90
FTW-NAS-JRB    CLOUDY    86  70  58 SW20      29.86R HX  90
FTW-SPINKS     PTSUNNY   84  72  65 S13G28    29.84S
ARLINGTON      CLOUDY    85  70  60 S12G23    29.83R
GRAND PRAIRIE  PTSUNNY   84  72  65 MISG      29.84S
ADDISON        CLOUDY    84  72  65 S8G17     29.84R
MESQUITE         N/A     82  72  69 S16G26    29.84F
LANCASTER      CLOUDY    84  71  63 S15G25    29.84F
$$

TXZ091>094-102>105-117-120-121-131>134-021700-
NORTH CENTRAL TEXAS

CITY           SKY/WX    TMP DP  RH WIND       PRES   REMARKS
SHRMAN/DENISON PTSUNNY   83  71  65 S18G26    29.82S
GAINESVILLE    PTSUNNY   85  71  63 S21G30    29.83S
BOWIE          PTSUNNY   82  69  66 S17G23    29.82R
BRIDGEPORT     PTSUNNY   81  68  65 S9        29.83F
DECATUR        PTSUNNY   77  73  88 S8        29.83S
DENTON         PTSUNNY   85  71  63 S21       29.82S HX  90
MCKINNEY       PTSUNNY   83  72  69 SW15G23   29.83S
GREENVILLE     PTSUNNY   84  70  61 S20       29.85S
ROCKWALL       CLOUDY    83  74  72 S13G20    29.83S HX  90
TERRELL        PTSUNNY   85  73  67 S15G24    29.84F HX  91
WAXAHACHIE     CLOUDY    85  73  66 S20G25    29.85S HX  91
CLEBURNE       CLOUDY    82  73  74 SW15G22   29.85S
GRANBURY       CLOUDY    84  71  65 S9        29.84R
$$

TXZ083>090-098>101-113>116-127>130-139>142-154-155-021700-
WESTERN NORTH TEXAS

CITY           SKY/WX    TMP DP  RH WIND       PRES   REMARKS
WICHITA FALLS  MOSUNNY   83  67  58 SW14G25   29.77F
WF-KICKAPOO    PTSUNNY   82  65  56 SW10G21   29.80S
VERNON         SUNNY     73  54  49 N14G22    29.85R
ABILENE        SUNNY     85  67  54 SW17      29.87R
ABILENE-DYESS  MOSUNNY   85  66  51 SW21      29.86R
BRECKENRIDGE   MOSUNNY   88  66  48 SW20G26   29.83R HAZE    HX  90
GRAHAM         CLOUDY    84  67  57 SW13G22   29.82R
MINERAL WELLS  PTSUNNY   83  71  67 S13       29.81F
STEPHENVILLE   PTSUNNY   83  70  64 SW18G25   29.87F
COMANCHE       CLOUDY    83  69  62 SW18G24   29.86S
BROWNWOOD      PTSUNNY   82  72  69 SW13      29.87S
COLEMAN        MOSUNNY   84  67  56 SW17      29.88S
BRADY          MOSUNNY   84  70  61 SW15      29.90R
$$

TXZ143>147-156>162-174-175-021700-
CENTRAL TEXAS

CITY           SKY/WX    TMP DP  RH WIND       PRES   REMARKS
WACO           CLOUDY    85  73  67 S18G24    29.85S HX  91
WACO-TSTC      CLOUDY    82  73  74 S13G23    29.86R HAZE
WACO-MCGREGOR  CLOUDY    84  70  61 S18G25    29.87S
HILLSBORO      CLOUDY    84  69  61 S18G26    29.85S
CORSICANA      CLOUDY    85  70  60 S18G29    29.87S
MEXIA          PTSUNNY   83  73  71 S16G22    29.86F HX  90
HEARNE         PTSUNNY   84  74  72 S15       29.88S HX  92
CAMERON        PTSUNNY   86  74  67 SW14G28   29.87S HX  93
TEMPLE         CLOUDY    82  70  65 S18       29.86R
KILLEEN        CLOUDY    84  72  65 S16       29.87S
KILLEEN-SKYLRK CLOUDY    82  70  65 S16       29.87S
FORT HOOD      CLOUDY    85  73  67 S13       29.87R HX  91
GATESVILLE     MOSUNNY   84  72  65 S12G26    29.88S HAZE
HAMILTON       MOSUNNY   83  69  64 SW16G30   29.87R
LAMPASAS       MOSUNNY   82  73  73 S12       29.86F
$$

TXZ095>097-106>112-122>126-135>138-148>153-164>167-021700-
EAST TEXAS

CITY           SKY/WX    TMP DP  RH WIND       PRES   REMARKS
PARIS          CLOUDY    82  70  65 S13G18    29.85S
SULPHUR SPRNGS CLOUDY    84  71  65 SW14      29.87S
MOUNT PLEASANT PTSUNNY  N/A N/A N/A S10       29.88F
GILMER         PTSUNNY   84  73  70 S12G20    29.89S HX  91
MINEOLA        PTSUNNY   84  73  70 S15G21    29.87F HX  91
TYLER          PTSUNNY   85  73  67 SW17G23   29.88S HX  91
LONGVIEW       PTSUNNY   84  73  69 SW10      29.89S HX  90
MARSHALL       PTSUNNY   89  77  68 S10       29.91S HX 101
ATHENS         CLOUDY    82  72  69 S10G18    29.87S
PALESTINE      CLOUDY    85  75  72 S12G18    29.90S HX  93
JACKSONVILLE   CLOUDY    83  74  73 S12G20    29.92S HX  90
HENDERSON        N/A    N/A N/A N/A MISG        N/A
NACOGDOCHES    MOSUNNY   84  75  74 S13G18    29.91S HX  92
LUFKIN         PTSUNNY   86  75  69 S10       29.91S HX  95
$$

SUPPLEMENTAL OBSERVATIONS (CENTRAL)

CITY           SKY/WX    TMP DP  RH WIND       PRES   REMARKS
LAKE TEXOMA      N/A     82  72  69 SW14        N/A
CADDO GRASSLND   N/A     84  72  65 S14         N/A
PAT MAYSE LAKE   N/A     81  70  69 SE13        N/A
LAKE LIMESTONE   N/A     84  73  70 SW14        N/A  HX  91
MCGREGOR         N/A     84  72  65 S10G21      N/A
$$

SUPPLEMENTAL OBSERVATIONS (WEST)

CITY           SKY/WX    TMP DP  RH WIND       PRES   REMARKS
MILLERS CREEK    N/A     75  61  60 NW15G22     N/A
LBJ GRASSLAND    N/A     79  72  78 S8G16       N/A
COMANCHE         N/A     82  70  65 SW15G26     N/A
HAMBY            N/A     84  66  54 SW18G25     N/A
COLORADO BEND    N/A     84  70  61 S13         N/A
$$

SUPPLEMENTAL OBSERVATIONS (EAST)

CITY           SKY/WX    TMP DP  RH WIND       PRES   REMARKS
CLARKSVILLE      N/A     84  70  61 S13         N/A
TEXARKANA        N/A     86  72  62 S6G14       N/A  HX  92
LINDEN           N/A     84  72  65 W5G14       N/A
GILMER           N/A     86  72  62 S8          N/A  HX  92
HENDERSON        N/A     82  73  74 SW12        N/A
LUFKIN           N/A     84  73  70 MISG        N/A  HX  91
N SABINE NF      N/A     86  77  74 MISG        N/A  HX  97
S SABINE NF      N/A     86  81  84 S5          N/A  HX 102
$$

SUPPLEMENTAL OBSERVATIONS ARE A COLLECTION OF AUTOMATED INSTRUMENTS
THAT ARE MAINTAINED BY A VARIETY OF FEDERAL AND STATE AGENCIES.
CERTAIN ELEMENTS...SUCH AS HUMIDITY VALUES AND SUSTAINED WIND
SPEEDS...MAY BE APPROXIMATED.



USA.gov is the U.S. government's official web portal to all federal, state and local government web resources and services.